[[{"header":{"parameterUnit":"m.s-1","parameterCategory":1,"la1":30.2992,"la2":30.254,"lo1":-89.0895,"lo2":-89.0443,"dy":0.0025,"dx":0.0025,"nx":19,"ny":19,"refTime":"2026-05-06T03:00:00:Z","depth":0,"parameterNumber":2,"parameterNumberName":"U-component_of_WINDS"},"data":[0,0,0,2.5138,2.5138,2.5122,2.5122,2.5118,2.5118,0,0,0,0,0,0,0,0,0,0,0,2.5154,2.5154,2.5138,2.5138,2.5122,2.5122,2.5118,2.5118,0,0,0,0,0,0,0,0,0,0,0,2.5154,2.5154,2.5155,2.5138,2.5122,2.5122,2.5118,2.5124,0,0,0,0,0,0,0,0,0,0,2.5136,2.5162,2.5154,2.5155,2.5138,2.5122,2.5122,2.5124,2.5123,2.5133,0,2.5145,0,2.5131,2.5119,2.5119,0,0,0,2.5129,2.5163,2.5148,2.5155,2.5138,2.5122,2.5127,2.5123,2.5123,2.5132,2.5144,2.5144,2.5131,2.5119,2.5119,2.5201,2.5202,0,0,2.513,2.5157,2.5149,2.5149,2.5153,2.5127,2.5126,2.5123,2.5138,2.5144,2.5143,2.5131,2.5119,2.5119,2.52,2.5201,0,0,0,2.5139,2.5158,2.5143,2.5149,2.5145,2.5127,2.5126,2.5138,2.5131,2.5143,2.5131,2.5119,2.5119,2.5199,2.5201,2.5264,0,0,0,2.5139,2.5163,2.5144,2.516,2.5146,2.5141,2.5141,2.5131,2.513,2.5131,2.5119,2.5119,2.5199,2.52,2.5261,2.529,0,0,0,2.5151,2.5164,2.5166,2.5162,2.5156,2.5141,2.5133,2.513,2.5123,2.5119,2.5119,2.5198,2.52,2.5258,2.5285,2.5318,0,0,0,2.5172,2.5224,2.5167,2.522,2.5156,2.5181,2.5133,2.515,2.5155,2.5119,2.5199,2.5201,2.5257,2.5281,2.5315,2.5351,2.5369,0,0,2.5252,2.5234,2.5263,2.5212,2.5253,2.5181,2.5232,2.5211,2.5186,2.5197,2.5199,2.5262,2.5284,2.5318,2.546,2.5475,0,0,0,2.5297,2.5318,2.5323,2.5328,2.5313,2.5302,2.527,2.5262,2.527,2.5197,2.5283,2.5295,2.5314,2.533,2.5342,2.5355,2.5209,2.5209,2.5209,2.5448,2.5413,2.5457,2.542,2.5426,2.5392,2.5393,2.5375,2.5339,2.536,2.5363,2.5454,2.5473,2.5482,2.5497,2.538,2.538,2.538,2.538,2.556,2.5583,2.5533,2.5558,2.552,2.554,2.5509,2.5482,2.5495,2.5449,2.5464,2.5416,2.5499,2.551,2.5385,2.5384,2.5384,2.5383,2.5383,2.5654,2.5659,2.5648,2.5651,2.5657,2.5617,2.5631,2.5596,2.5564,2.5578,2.5576,2.5575,2.5569,2.558,2.558,2.5581,2.5581,2.5581,2.5581,2.5755,2.5741,2.5757,2.5745,2.5742,2.5735,2.5701,2.5697,2.5684,2.5658,2.5658,2.5618,2.5514,2.5488,2.5586,2.5585,2.5585,2.5584,2.5584,2.588,2.5846,2.5871,2.5869,2.585,2.5858,2.5813,2.5809,2.5801,2.5809,2.5766,2.5695,2.5675,2.5665,2.5643,2.5775,2.5775,2.5775,2.5775,2.5958,2.5945,2.5961,2.596,2.5955,2.5917,2.5945,2.5918,2.5884,2.5877,2.5853,2.5821,2.5813,2.5797,2.5784,2.5763,2.5922,2.5922,2.5922,2.6032,2.6016,2.6047,2.6014,2.5997,2.5982,2.6006,2.6006,2.5961,2.5928,2.587,2.5864,2.5812,2.5797,2.5762,2.5743,2.5704,0,0]},{"header":{"parameterUnit":"m.s-1","parameterCategory":1,"la1":30.2992,"la2":30.254,"lo1":-89.0895,"lo2":-89.0443,"dy":0.0025,"dx":0.0025,"nx":19,"ny":19,"refTime":"2026-05-06T03:00:00:Z","depth":0,"parameterNumber":3,"parameterNumberName":"V-component_of_WINDS"},"data":[0,0,0,6.8516,6.852,6.8703,6.8704,6.894,6.8942,0,0,0,0,0,0,0,0,0,0,0,6.8465,6.8467,6.8516,6.852,6.8703,6.8704,6.894,6.8942,0,0,0,0,0,0,0,0,0,0,0,6.8464,6.8466,6.8469,6.8521,6.8703,6.8704,6.8939,6.88,0,0,0,0,0,0,0,0,0,0,6.8621,6.8578,6.8466,6.8469,6.8522,6.8703,6.8704,6.8793,6.8809,6.8859,0,6.8906,0,6.8928,6.8959,6.8959,0,0,0,6.8517,6.8566,6.8612,6.8469,6.8524,6.8703,6.862,6.8802,6.8819,6.888,6.891,6.8918,6.8932,6.896,6.8961,6.9269,6.927,0,0,6.8507,6.8499,6.86,6.8624,6.8598,6.8614,6.8625,6.8812,6.8844,6.8911,6.8924,6.8936,6.8962,6.8964,6.9267,6.9269,0,0,0,6.848,6.8492,6.8534,6.8614,6.8647,6.8619,6.8633,6.8835,6.885,6.8926,6.8939,6.8963,6.8966,6.9266,6.9268,6.9341,0,0,0,6.8474,6.8477,6.853,6.8527,6.8644,6.8744,6.8652,6.8837,6.8858,6.8938,6.8963,6.8968,6.9264,6.9267,6.9336,6.9377,0,0,0,6.8452,6.8474,6.8502,6.8526,6.8605,6.8741,6.8766,6.8842,6.8866,6.896,6.8969,6.9263,6.9266,6.9331,6.9369,6.9458,0,0,0,6.8425,6.8562,6.8503,6.866,6.8603,6.8785,6.8765,6.89,6.8989,6.8964,6.9264,6.9268,6.9329,6.9364,6.9452,6.9532,6.9565,0,0,6.8593,6.8582,6.8675,6.8628,6.8819,6.8758,6.8959,6.9046,6.906,6.9198,6.9206,6.9338,6.9368,6.9457,6.9746,6.9772,0,0,0,6.8726,6.8793,6.8845,6.8931,6.9002,6.9067,6.9124,6.9156,6.9274,6.913,6.9393,6.9411,6.9464,6.9502,6.9524,6.957,6.9285,6.9285,6.9284,6.8952,6.8966,6.9121,6.9158,6.924,6.9299,6.9368,6.9421,6.9408,6.947,6.9511,6.9686,6.9731,6.9747,6.9795,6.9553,6.9553,6.9554,6.9554,6.92,6.9298,6.9281,6.9426,6.9438,6.9559,6.9621,6.9608,6.9722,6.9655,6.9702,6.9629,6.9775,6.9818,6.956,6.9559,6.9558,6.9557,6.9557,6.9351,6.9401,6.944,6.9567,6.9662,6.9692,6.9804,6.981,6.9817,6.9863,6.9909,6.9908,6.9908,6.9884,6.9885,6.9885,6.9886,6.9886,6.9887,6.9494,6.9535,6.963,6.9719,6.9775,6.9851,6.9912,6.9967,7.003,7.0026,7.0027,7.0009,6.9787,6.9732,6.9896,6.9895,6.9893,6.9892,6.9892,6.9743,6.9688,6.9834,6.9892,6.9997,7.0093,7.01,7.0213,7.0259,7.0314,7.0286,7.0121,7.0109,7.0091,7.0046,7.0282,7.0282,7.0282,7.0282,6.9872,6.9867,7.0019,7.0111,7.02,7.0223,7.0387,7.0436,7.0477,7.0507,7.0473,7.0413,7.0395,7.0394,7.037,7.0328,7.063,7.0631,7.0631,7.0027,7.0031,7.0171,7.0213,7.0297,7.0368,7.0523,7.0627,7.0662,7.0645,7.0531,7.0516,7.0419,7.0387,7.0368,7.033,7.0253,0,0]}]]